EW4071 Weather Reports


Display with metric or nautical units.
time (UTC)temp
F
wind
direction
speed
MPH
gust
MPH
rain 1hr
in
rain 24hr
in
rain mn
in
humidity
%
barometer
mb
20210615103052 67 123 0.0 0.0 0.00 0.00 0.00 91 1014.8
20210615101557 67 123 0.0 0.0 0.00 0.00 0.00 92 1014.7
20210615100107 67 123 0.0 0.0 0.00 0.00 0.00 91 1014.6
20210615094537 67 123 0.0 0.0 0.00 0.00 0.00 90 1014.5
20210615093047 67 123 0.0 0.0 0.00 0.00 0.00 89 1014.2
20210615091601 68 123 0.0 0.0 0.00 0.00 0.00 88 1014.3
20210615090120 68 123 0.0 0.0 0.00 0.00 0.00 88 1014.2
20210615084557 68 123 0.0 0.0 0.00 0.00 0.00 89 1014.0
20210615083044 69 123 0.0 0.0 0.00 0.00 0.00 87 1014.0
20210615081552 69 123 0.0 0.0 0.00 0.00 0.00 87 1014.1
20210615080025 69 123 0.0 0.0 0.00 0.00 0.00 86 1014.1
20210615074545 70 123 0.0 0.0 0.00 0.00 0.00 86 1014.2
20210615073017 70 123 0.0 0.0 0.00 0.00 0.00 83 1014.2
20210615071523 71 123 0.0 0.0 0.00 0.00 0.00 82 1014.3
20210615070008 73 123 0.0 0.0 0.00 0.00 0.00 77 1014.3
20210615064504 74 123 0.0 0.0 0.00 0.00 0.00 76 1014.3
20210615063005 73 123 0.0 0.0 0.00 0.00 0.00 76 1014.4
20210615061506 72 123 0.0 0.0 0.00 0.00 0.00 80 1014.3
20210615060211 73 123 0.0 0.0 0.00 0.00 0.00 75 1014.4
20210615053216 75 123 0.0 0.0 0.00 0.00 0.00 73 1014.4
20210615051721 74 123 0.0 0.0 0.00 0.00 0.00 75 1014.3
20210615050252 74 123 0.0 0.0 0.00 0.00 0.00 76 1014.3
20210615044704 74 123 0.0 0.0 0.00 0.00 0.00 77 1014.3
20210615043106 74 123 0.0 0.0 0.00 0.00 0.00 75 1014.3
20210615041609 74 123 0.0 0.0 0.00 0.00 0.00 75 1014.3
20210615040152 75 123 0.0 0.0 0.00 0.00 0.00 73 1014.1
20210615034636 75 123 0.0 0.0 0.00 0.00 0.00 72 1014.1
20210615033125 76 123 0.0 0.0 0.00 0.00 0.00 69 1013.9
20210615031637 77 123 0.0 0.0 0.00 0.00 0.00 65 1013.6
20210615030137 77 123 0.0 0.0 0.00 0.00 0.00 64 1013.3
20210615024656 78 123 0.0 0.0 0.00 0.00 0.00 61 1013.2
20210615023141 80 123 0.0 0.0 0.00 0.00 0.00 59 1013.0
20210615021630 81 123 0.0 0.0 0.00 0.00 0.00 58 1012.8
20210615020129 82 123 0.0 0.0 0.00 0.00 0.00 55 1012.8
20210615014631 84 123 0.0 0.0 0.00 0.00 0.00 53 1012.8
20210615013149 86 123 0.0 0.0 0.00 0.00 0.00 51 1012.8
20210615011645 87 123 0.0 0.0 0.00 0.00 0.00 48 1012.8
20210615010059 88 123 0.0 0.0 0.00 0.00 0.00 48 1012.8
20210615004704 88 124 0.0 0.0 0.00 0.00 0.00 48 1012.7
20210615003125 88 140 0.0 0.0 0.00 0.00 0.00 47 1012.7
20210615001611 88 118 0.0 0.0 0.00 0.00 0.00 45 1012.5
20210614234549 89 141 0.0 0.0 0.00 0.00 0.00 46 1012.5
20210614233119 90 71 0.0 4.0 0.00 0.00 0.00 40 1012.6
20210614231751 90 112 0.0 5.0 0.00 0.00 0.00 44 1012.6
20210614230131 91 133 0.0 0.0 0.00 0.00 0.00 44 1012.7
20210614224633 91 216 0.0 0.0 0.00 0.00 0.00 41 1012.9
20210614223118 91 190 0.0 0.0 0.00 0.00 0.00 45 1013.0
20210614221624 92 122 0.0 4.0 0.00 0.00 0.00 43 1013.1
20210614220110 92 108 0.0 7.0 0.00 0.00 0.00 42 1013.1
20210614214556 92 170 0.0 0.0 0.00 0.00 0.00 38 1013.2
20210614213129 91 133 0.0 0.0 0.00 0.00 0.00 42 1013.2
20210614211600 91 159 0.0 11.0 0.00 0.00 0.00 44 1013.3
20210614210032 92 141 4.0 8.0 0.00 0.00 0.00 41 1013.4
20210614204642 92 152 0.0 8.0 0.00 0.00 0.00 42 1013.6
20210614203116 93 128 0.0 1.0 0.00 0.00 0.00 39 1013.8
20210614201532 93 138 0.0 0.0 0.00 0.00 0.00 37 1013.8
20210614200031 92 126 0.0 10.0 0.00 0.00 0.00 40 1013.9
20210614194540 92 128 0.0 0.0 0.00 0.00 0.00 35 1014.1
20210614193045 92 84 0.0 0.0 0.00 0.00 0.00 38 1014.4
20210614191646 91 127 0.0 0.0 0.00 0.00 0.00 35 1014.6
20210614190034 91 343 0.0 7.0 0.00 0.00 0.00 35 1014.6
20210614184612 91 133 0.0 0.0 0.00 0.00 0.00 40 1014.8
20210614183019 90 124 0.0 1.0 0.00 0.00 0.00 47 1014.9
20210614181600 90 315 0.0 2.0 0.00 0.00 0.00 41 1015.0
20210614180012 89 94 0.0 0.0 0.00 0.00 0.00 46 1015.0
20210614174541 88 62 0.0 7.0 0.00 0.00 0.00 47 1015.1
20210614173007 88 108 0.0 0.0 0.00 0.00 0.00 48 1015.4
20210614171502 87 107 0.0 6.0 0.00 0.00 0.00 49 1015.4
20210614170003 86 102 0.0 7.0 0.00 0.00 0.00 51 1015.3
20210614164723 86 140 0.0 0.0 0.00 0.00 0.00 53 1015.4
20210614163209 86 114 2.0 8.0 0.00 0.00 0.00 51 1015.5
20210614161616 86 121 0.0 0.0 0.00 0.00 0.00 53 1015.6
20210614160212 85 90 0.0 0.0 0.00 0.00 0.00 53 1015.5
20210614154640 85 127 0.0 4.0 0.00 0.00 0.00 53 1015.6
20210614153218 85 126 0.0 0.0 0.00 0.00 0.00 56 1015.6
20210614151650 84 120 0.0 0.0 0.00 0.00 0.00 54 1015.7
20210614150104 83 126 0.0 0.0 0.00 0.00 0.00 58 1015.6
20210614144600 83 128 0.0 0.0 0.00 0.00 0.00 58 1015.6
20210614143109 82 128 0.0 0.0 0.00 0.00 0.00 60 1015.7
20210614141618 82 310 0.0 0.0 0.00 0.00 0.00 63 1015.6
20210614140125 81 310 0.0 0.0 0.00 0.00 0.00 68 1015.6
20210614134555 79 339 0.0 0.0 0.00 0.00 0.00 71 1015.6
20210614133105 78 318 0.0 0.0 0.00 0.00 0.00 69 1015.8
20210614131557 77 318 0.0 0.0 0.00 0.00 0.00 69 1015.8
20210614130116 76 318 0.0 0.0 0.00 0.00 0.00 71 1015.3
20210614124549 72 318 0.0 0.0 0.00 0.00 0.00 78 1015.3
20210614123036 70 318 0.0 0.0 0.00 0.00 0.00 81 1015.3
20210614121527 69 300 0.0 0.0 0.00 0.00 0.00 84 1015.0
20210614120054 66 300 0.0 0.0 0.00 0.00 0.00 88 1014.8
20210614114520 65 301 0.0 0.0 0.00 0.00 0.00 88 1014.6
20210614113026 65 300 0.0 0.0 0.00 0.00 0.00 87 1014.3
20210614111508 65 301 0.0 0.0 0.00 0.00 0.00 88 1014.1
20210614110009 65 300 0.0 0.0 0.00 0.00 0.00 87 1013.9
20210614104516 66 300 0.0 0.0 0.00 0.00 0.00 84 1014.2